Weather History for KFST - September, 2011

Change the Weather History Date:

Wednesday, September 21, 2011

  Actual Average Record
Temperature  
Mean Temperature 78 °F -  
Max Temperature 91 °F 85 °F 97 °F (1998)
Min Temperature 66 °F 61 °F 55 °F (2008)
Cooling Degree Days 14    
Growing Degree Days 28 (Base 50)    
Moisture  
Dew Point 48 °F    
Average Humidity 37    
Maximum Humidity 65    
Minimum Humidity 20    
Precipitation  
Precipitation 0.01 in - - ()
Sea Level Pressure  
Sea Level Pressure 29.93 in    
Wind  
Wind Speed 10 mph (WSW)    
Max Wind Speed 18 mph    
Max Gust Speed 25 mph    
Visibility 10 miles    
Events Rain , Thunderstorm    
Averages and records for this station are not official NWS values.
T = Trace of Precipitation, MM = Missing Value Source: NWS Daily Summary

Daily Weather History Graph

Daily Weather History Graph

Search for Another Location

Airport or City:

Trip Planner

Search our weather history database for the weather conditions in past years. The results will help you decide how hot, cold, wet, or windy it might be!

Date:

Astronomy

Sep. 21, 2011 Rise Set
Actual Time 7:39 AM CDT 7:49 PM CDT
Civil Twilight 7:15 AM CDT 8:13 PM CDT
Nautical Twilight 6:46 AM CDT 8:42 PM CDT
Astronomical Twilight 6:18 AM CDT 9:10 PM CDT
Moon 1:23 AM CDT (9/21) 3:40 PM CDT (9/21)
Length of Visible Light 12h 58m
Length of Day
12h 10m
Last Quarter, 38% of the Moon is Illuminated
Sep 21
Last Quarter
Sep 27
New
Oct 3
First Quarter
Oct 11
Full
Oct 19
Last Quarter

Hourly Weather History & Observations

Time (CDT) Temp. Dew Point Humidity Pressure Visibility Wind Dir Wind Speed Gust Speed Precip Events Conditions
12:53 AM 78.1 °F 42.1 °F 28% 29.83 in 10.0 mi South 13.8 mph - N/A   Clear
2:53 AM 75.9 °F 44.1 °F 32% 29.83 in 10.0 mi SSE 9.2 mph - N/A   Clear
3:53 AM 70.0 °F 46.0 °F 42% 29.83 in 10.0 mi SSW 9.2 mph - N/A   Clear
4:53 AM 73.9 °F 44.1 °F 34% 29.82 in 10.0 mi SSW 10.4 mph - N/A   Clear
5:30 AM 73.4 °F 44.6 °F 36% 30.00 in 10.0 mi NE 5.8 mph - N/A Thunderstorm Scattered Clouds
5:53 AM 71.1 °F 52.0 °F 51% 29.83 in 10.0 mi SW 15.0 mph - 0.00 in   Scattered Clouds
6:38 AM 73.4 °F 48.2 °F 41% 29.99 in 10.0 mi SW 10.4 mph - 0.00 in   Partly Cloudy
6:53 AM 73.0 °F 48.9 °F 42% 29.85 in 10.0 mi SW 11.5 mph - 0.00 in   Clear
7:53 AM 72.0 °F 48.0 °F 43% 29.91 in 10.0 mi North 12.7 mph - N/A Thunderstorm Partly Cloudy
8:00 AM 71.6 °F 48.2 °F 43% 30.05 in 10.0 mi NNE 6.9 mph - N/A Thunderstorm Partly Cloudy
8:46 AM 71.6 °F 50.0 °F 46% 30.07 in 10.0 mi SSW 9.2 mph - 0.00 in Rain , Thunderstorm Light Thunderstorms and Rain
9:17 AM 66.2 °F 53.6 °F 64% 30.09 in 10.0 mi West 8.1 mph 21.9 mph 0.01 in Rain Light Rain
9:53 AM 68.0 °F 55.9 °F 65% 29.97 in 10.0 mi WSW 9.2 mph - 0.01 in   Overcast
10:53 AM 75.9 °F 53.1 °F 45% 29.95 in 10.0 mi West 18.4 mph 24.2 mph N/A   Clear
11:53 AM 80.1 °F 50.0 °F 35% 29.96 in 10.0 mi WNW 18.4 mph 25.3 mph N/A   Clear
12:53 PM 82.9 °F 48.9 °F 31% 29.96 in 10.0 mi WNW 10.4 mph 17.3 mph N/A   Clear
1:53 PM 84.9 °F 48.0 °F 28% 29.94 in 10.0 mi NW 12.7 mph - N/A   Clear
2:53 PM 87.1 °F 46.0 °F 24% 29.91 in 10.0 mi WNW 11.5 mph - N/A   Clear
3:53 PM 88.0 °F 44.1 °F 22% 29.88 in 10.0 mi Calm Calm - N/A   Clear
4:53 PM 90.0 °F 44.1 °F 20% 29.86 in 10.0 mi WNW 4.6 mph - N/A   Clear
5:53 PM 91.0 °F 44.1 °F 20% 29.86 in 10.0 mi NNW 3.5 mph - N/A   Clear
6:53 PM 87.1 °F 45.0 °F 23% 29.87 in 10.0 mi West 4.6 mph - N/A   Clear
7:53 PM 82.9 °F 48.9 °F 31% 29.88 in 10.0 mi WSW 3.5 mph - N/A   Clear
9:53 PM 77.0 °F 48.9 °F 37% 29.93 in 10.0 mi SW 8.1 mph - N/A   Clear
10:53 PM 75.0 °F 48.9 °F 40% 29.94 in 10.0 mi SSE 8.1 mph - N/A   Clear
11:14 PM 75.2 °F 48.2 °F 38% 30.08 in 10.0 mi SE 13.8 mph 24.2 mph N/A   Clear
11:53 PM 73.0 °F 50.0 °F 44% 29.96 in 10.0 mi SSE 15.0 mph 23.0 mph N/A   Clear